[[{"header":{"parameterUnit":"m.s-1","parameterCategory":1,"la1":30.2991,"la2":30.254,"lo1":-89.0895,"lo2":-89.0444,"dy":0.0017,"dx":0.0017,"nx":28,"ny":28,"refTime":"2023-09-17T09:00:00:Z","depth":0,"parameterNumber":2,"parameterNumberName":"U-component_of_WINDS"},"data":[0,0,0,0,0,0,0,0,0,0,0,0,0,0,0,0,0,0,0,0,0,0,0,0,0,0,0,0,0,0,0,0,0,0,0,0,0,0,0,0,0,0,0,0,0,0,0,0,0,0,0,0,0,0,0,0,0,0,-5.1626,-5.1627,0,-5.1725,-5.1726,-5.1728,-5.1612,-5.1608,-5.1604,-5.1599,-5.1696,-5.1702,-5.1709,0,0,0,0,0,0,0,0,0,0,0,0,0,-5.1329,-5.1336,-5.1626,-5.1627,-5.1628,-5.1725,-5.1727,-5.1728,-5.1613,-5.1608,-5.1602,-5.1597,-5.1694,-5.1701,-5.1709,0,0,0,0,0,0,0,0,0,0,0,0,0,-5.1446,-5.1338,-5.1625,-5.1583,-5.158,-5.1725,-5.1727,-5.1728,-5.1614,-5.1607,-5.1601,-5.1595,-5.1691,-5.1701,-5.171,-5.1901,0,0,-5.174,-5.1745,0,0,0,0,0,0,0,0,-5.144,-5.1457,-5.1588,-5.1586,-5.1583,-5.165,-5.1657,-5.1786,-5.1616,-5.1601,-5.1599,-5.1592,-5.1685,-5.1695,-5.1728,-5.1905,-5.1909,-5.1741,-5.1747,-5.1752,-5.1754,0,0,0,0,0,0,0,-5.1432,-5.1452,-5.1665,-5.159,-5.1587,-5.1556,-5.1566,-5.1681,-5.1678,-5.1602,-5.1594,-5.1607,-5.1683,-5.1719,-5.1729,-5.1911,-5.1741,-5.175,-5.1756,-5.176,-5.2245,-5.2252,0,0,0,0,0,0,-5.143,-5.1446,-5.1662,-5.1668,-5.1494,-5.1567,-5.1578,-5.1635,-5.1676,-5.1677,-5.1613,-5.1601,-5.1705,-5.1718,-5.1732,-5.1954,-5.1752,-5.1761,-5.1766,-5.2239,-5.2247,-5.2254,0,0,0,0,0,0,-5.1424,-5.145,-5.1658,-5.1555,-5.1579,-5.1579,-5.1644,-5.164,-5.1676,-5.1685,-5.1683,-5.165,-5.17,-5.1718,-5.1859,-5.1956,-5.1765,-5.1774,-5.223,-5.2241,-5.2251,-5.2403,0,0,0,0,0,0,-5.1416,-5.1449,-5.1522,-5.1558,-5.1585,-5.1785,-5.165,-5.1647,-5.1694,-5.168,-5.172,-5.172,-5.1697,-5.1845,-5.1869,-5.1966,-5.1782,-5.2221,-5.2235,-5.2247,-5.2389,-5.2417,-5.2441,0,0,0,0,0,-5.1406,-5.156,-5.1527,-5.1553,-5.1678,-5.1791,-5.1806,-5.1778,-5.1702,-5.1775,-5.1781,-5.1719,-5.1943,-5.1861,-5.1886,-5.1988,-5.2215,-5.2231,-5.2246,-5.2377,-5.2411,-5.244,0,0,0,0,0,0,-5.1534,-5.1564,-5.1527,-5.1698,-5.1743,-5.1771,-5.1862,-5.1816,-5.1882,-5.1866,-5.1827,-5.1837,-5.1986,-5.2002,-5.1909,-5.2173,-5.2066,-5.2088,-5.2157,-5.2189,-5.2215,-5.2206,-5.179,0,0,0,0,0,-5.1583,-5.1675,-5.1695,-5.1844,-5.1869,-5.1863,-5.1911,-5.1886,-5.1929,-5.1947,-5.1963,-5.2006,-5.2086,-5.2139,-5.2214,-5.2392,-5.2397,-5.2475,-5.2501,-5.2522,-5.254,-5.2632,-5.2666,-5.2306,-5.2306,-5.2306,0,0,-5.1683,-5.1711,-5.1771,-5.1871,-5.1902,-5.1995,-5.1879,-5.1983,-5.205,-5.1962,-5.2095,-5.2109,-5.2155,-5.2315,-5.2386,-5.2332,-5.2641,-5.2542,-5.2559,-5.2565,-5.2651,-5.2685,-5.2716,-5.2317,-5.2315,-5.2313,0,0,-5.1913,-5.1946,-5.2071,-5.2106,-5.2157,-5.2151,-5.2182,-5.2218,-5.2224,-5.2358,-5.2293,-5.2372,-5.2512,-5.2546,-5.2582,-5.2826,-5.277,-5.2852,-5.2986,-5.3076,-5.3104,-5.3129,-5.3212,-5.3242,-5.287,-5.287,-5.2871,0,-5.203,-5.217,-5.2142,-5.225,-5.2294,-5.2222,-5.2347,-5.2382,-5.2454,-5.2485,-5.2425,-5.2597,-5.2623,-5.2788,-5.2848,-5.2881,-5.2911,-5.2844,-5.3103,-5.3128,-5.315,-5.3228,-5.326,-5.288,-5.2879,-5.2878,-5.2877,0,-5.231,-5.2408,-5.2504,-5.2576,-5.2632,-5.2749,-5.2735,-5.2795,-5.2766,-5.2766,-5.2902,-5.2931,-5.3009,-5.3047,-5.3019,-5.3208,-5.3173,-5.311,-5.3,-5.3194,-5.3267,-5.3297,-5.2893,-5.289,-5.2887,-5.2885,0,0,-5.2619,-5.2676,-5.2711,-5.2742,-5.2793,-5.2867,-5.298,-5.3058,-5.3107,-5.316,-5.3251,-5.3371,-5.3313,-5.3353,-5.3329,-5.3409,-5.3595,-5.3335,-5.3335,-5.3378,-5.38,-5.3844,-5.3879,-5.3561,-5.3567,-5.3571,-5.3795,0,-5.2845,-5.3042,-5.302,-5.3207,-5.3295,-5.3229,-5.3326,-5.3367,-5.3371,-5.3445,-5.3448,-5.3533,-5.3451,-5.3475,-5.3552,-5.3557,-5.3679,-5.3541,-5.3641,-5.3644,-5.3626,-5.3918,-5.3965,-5.4174,-5.3824,-5.3828,-5.3832,0,-5.3135,-5.3199,-5.3395,-5.3432,-5.3468,-5.3556,-5.3625,-5.3698,-5.3742,-5.3739,-5.3786,-5.3747,-5.3857,-5.3751,-5.39,-5.3807,-5.3847,-5.3856,-5.3863,-5.3867,-5.3746,-5.3925,-5.4241,-5.427,-5.3877,-5.3874,-5.387,0,-5.3334,-5.3471,-5.3604,-5.3634,-5.3681,-5.3744,-5.3766,-5.3805,-5.3852,-5.3913,-5.3942,-5.4015,-5.4053,-5.4108,-5.4089,-5.4014,-5.4241,-5.4133,-5.4238,-5.4238,-5.4284,-5.428,-5.4606,-5.432,-5.4319,-5.4319,-5.4318,0,-5.3586,-5.3707,-5.3694,-5.3776,-5.3909,-5.3883,-5.4015,-5.4029,-5.4064,-5.4145,-5.4093,-5.417,-5.4143,-5.4218,-5.4204,-5.4327,-5.4346,-5.4344,-5.4338,-5.4346,-5.4345,-5.4367,-5.435,-5.4327,-5.4325,-5.4324,-5.4322,0,-5.3829,-5.3826,-5.3967,-5.4001,-5.4013,-5.4109,-5.4136,-5.4212,-5.4214,-5.4317,-5.434,-5.4341,-5.4426,-5.4414,-5.4509,-5.45,-5.4652,-5.4631,-5.4637,-5.463,-5.4733,-5.4722,-5.5079,-5.5123,-5.4814,-5.4817,-5.482,0,-5.3987,-5.4078,-5.4124,-5.4175,-5.4202,-5.4287,-5.4336,-5.4314,-5.4367,-5.4425,-5.4493,-5.4574,-5.4637,-5.4776,-5.4784,-5.4856,-5.4832,-5.4953,-5.4842,-5.4846,-5.4827,-5.482,-5.4827,-5.4973,-5.4976,-5.4979,-5.4981,0,-5.4266,-5.426,-5.4334,-5.4408,-5.4468,-5.4524,-5.4575,-5.462,-5.4603,-5.4665,-5.4752,-5.4802,-5.49,-5.4979,-5.5047,-5.5067,-5.502,-5.5018,-5.5044,-5.505,-5.5047,-5.5045,-5.4691,-5.5008,-5.5005,-5.5003,-5.5002,-5.5001,-5.4466,-5.4544,-5.4588,-5.4671,-5.4708,-5.4757,-5.4829,-5.4841,-5.4914,-5.4993,-5.4976,-5.5074,-5.5115,-5.5201,-5.5229,-5.5303,-5.5258,-5.5299,-5.5308,-5.5317,-5.5326,-5.5041,-5.5316,-5.5316,-5.5315,-5.5314,-5.5314,0,-5.4737,-5.4763,-5.4841,-5.4914,-5.498,-5.4936,-5.4989,-5.5046,-5.5133,-5.5177,-5.5241,-5.5341,-5.5418,-5.5434,-5.5507,-5.5563,-5.5543,-5.5582,-5.5575,-5.5579,-5.5365,-5.5332,-5.5597,-5.5597,-5.5597,-5.5597,-5.5597,-5.5597,-5.4886,-5.5013,-5.5013,-5.5158,-5.5182,-5.5279,-5.5313,-5.5357,-5.5391,-5.5506,-5.5571,-5.5582,-5.5613,-5.5688,-5.5756,-5.5758,-5.5785,-5.5832,-5.5825,-5.5623,-5.5595,-5.5567,-5.5536,-5.5839,-5.584,-5.6032,-5.6034,-5.6035]},{"header":{"parameterUnit":"m.s-1","parameterCategory":1,"la1":30.2991,"la2":30.254,"lo1":-89.0895,"lo2":-89.0444,"dy":0.0017,"dx":0.0017,"nx":28,"ny":28,"refTime":"2023-09-17T09:00:00:Z","depth":0,"parameterNumber":3,"parameterNumberName":"V-component_of_WINDS"},"data":[0,0,0,0,0,0,0,0,0,0,0,0,0,0,0,0,0,0,0,0,0,0,0,0,0,0,0,0,0,0,0,0,0,0,0,0,0,0,0,0,0,0,0,0,0,0,0,0,0,0,0,0,0,0,0,0,0,0,-1.4592,-1.4593,0,-1.4665,-1.4665,-1.4666,-1.468,-1.468,-1.4679,-1.4679,-1.4754,-1.4756,-1.4759,0,0,0,0,0,0,0,0,0,0,0,0,0,-1.4464,-1.4466,-1.4592,-1.4593,-1.4594,-1.4664,-1.4665,-1.4666,-1.468,-1.468,-1.4679,-1.4678,-1.4753,-1.4756,-1.4759,0,0,0,0,0,0,0,0,0,0,0,0,0,-1.4526,-1.4467,-1.4592,-1.4609,-1.4611,-1.4664,-1.4665,-1.4667,-1.4681,-1.468,-1.4679,-1.4678,-1.4752,-1.4756,-1.4759,-1.48,0,0,-1.4771,-1.4773,0,0,0,0,0,0,0,0,-1.4523,-1.4531,-1.4606,-1.4608,-1.4611,-1.4662,-1.4648,-1.4711,-1.4681,-1.4654,-1.4679,-1.4678,-1.4724,-1.473,-1.4746,-1.4804,-1.4807,-1.4771,-1.4774,-1.4775,-1.4776,0,0,0,0,0,0,0,-1.4518,-1.4528,-1.4621,-1.4607,-1.461,-1.4613,-1.4621,-1.466,-1.4693,-1.4657,-1.4658,-1.4666,-1.4725,-1.4742,-1.4748,-1.4808,-1.4771,-1.4775,-1.4777,-1.4778,-1.4901,-1.4902,0,0,0,0,0,0,-1.4511,-1.4524,-1.4618,-1.4623,-1.4564,-1.4616,-1.4625,-1.4647,-1.4693,-1.4699,-1.4667,-1.4667,-1.4736,-1.4743,-1.475,-1.48,-1.4775,-1.4779,-1.4781,-1.49,-1.4901,-1.4902,0,0,0,0,0,0,-1.4508,-1.4519,-1.4615,-1.4574,-1.4586,-1.4619,-1.4644,-1.4649,-1.4665,-1.4701,-1.4706,-1.4678,-1.4736,-1.4745,-1.4787,-1.4803,-1.478,-1.4784,-1.4899,-1.4901,-1.4902,-1.4901,0,0,0,0,0,0,-1.4504,-1.4518,-1.4534,-1.4574,-1.4588,-1.4651,-1.4645,-1.4651,-1.4672,-1.4672,-1.4712,-1.4718,-1.4736,-1.4781,-1.4791,-1.4808,-1.4787,-1.4898,-1.49,-1.4901,-1.4899,-1.4902,-1.4904,0,0,0,0,0,-1.45,-1.4532,-1.4535,-1.4546,-1.4609,-1.4652,-1.466,-1.468,-1.4673,-1.4689,-1.4711,-1.4717,-1.4799,-1.4786,-1.4797,-1.4815,-1.4897,-1.4899,-1.4901,-1.4898,-1.4901,-1.4904,0,0,0,0,0,0,-1.4494,-1.4537,-1.4542,-1.4587,-1.4616,-1.4655,-1.4676,-1.4682,-1.4714,-1.4713,-1.4735,-1.4744,-1.4785,-1.4804,-1.4788,-1.4856,-1.4848,-1.4852,-1.4842,-1.4845,-1.4847,-1.4842,-1.479,0,0,0,0,0,-1.4497,-1.4529,-1.4565,-1.4602,-1.4616,-1.4643,-1.4663,-1.4674,-1.4705,-1.4717,-1.4743,-1.4772,-1.4805,-1.4826,-1.4858,-1.4902,-1.491,-1.492,-1.4922,-1.4924,-1.4927,-1.4951,-1.4955,-1.491,-1.491,-1.491,0,0,-1.4506,-1.4533,-1.4552,-1.4601,-1.4625,-1.4656,-1.4653,-1.4687,-1.471,-1.4723,-1.4764,-1.4783,-1.4818,-1.4861,-1.4881,-1.4878,-1.4941,-1.4926,-1.4927,-1.493,-1.4953,-1.4958,-1.4961,-1.4911,-1.4911,-1.4911,0,0,-1.4537,-1.4561,-1.4594,-1.4617,-1.4653,-1.467,-1.4678,-1.4715,-1.4729,-1.477,-1.478,-1.4808,-1.4863,-1.4887,-1.4906,-1.4944,-1.495,-1.4954,-1.4966,-1.4989,-1.4992,-1.4995,-1.5008,-1.5013,-1.4957,-1.4957,-1.4957,0,-1.4543,-1.4591,-1.461,-1.4643,-1.4664,-1.4675,-1.4708,-1.473,-1.4774,-1.4788,-1.4783,-1.4852,-1.4877,-1.4925,-1.4933,-1.4949,-1.4958,-1.495,-1.499,-1.4993,-1.4997,-1.5009,-1.5014,-1.4958,-1.4958,-1.4958,-1.4958,0,-1.4596,-1.4629,-1.4651,-1.4692,-1.4716,-1.4748,-1.4772,-1.4793,-1.4802,-1.482,-1.4861,-1.489,-1.4928,-1.494,-1.495,-1.4989,-1.4986,-1.4986,-1.4978,-1.5001,-1.5013,-1.5018,-1.4958,-1.4958,-1.4958,-1.4958,0,0,-1.4627,-1.4677,-1.4685,-1.4703,-1.4742,-1.4768,-1.48,-1.4836,-1.4853,-1.4883,-1.491,-1.4956,-1.4956,-1.4977,-1.499,-1.501,-1.5037,-1.5007,-1.5008,-1.5011,-1.508,-1.508,-1.5086,-1.504,-1.5041,-1.5042,-1.5077,0,-1.4663,-1.4721,-1.4738,-1.4787,-1.4817,-1.4828,-1.4856,-1.4882,-1.4899,-1.4927,-1.4946,-1.4978,-1.4975,-1.4988,-1.5008,-1.5029,-1.5051,-1.5027,-1.5066,-1.5067,-1.5057,-1.5092,-1.5092,-1.5124,-1.5082,-1.5083,-1.5084,0,-1.4713,-1.4742,-1.4794,-1.4827,-1.4841,-1.4866,-1.4899,-1.4925,-1.4955,-1.4966,-1.4989,-1.5,-1.5033,-1.5023,-1.507,-1.5053,-1.507,-1.5082,-1.5084,-1.5088,-1.5077,-1.5097,-1.5135,-1.514,-1.5091,-1.5091,-1.509,0,-1.4729,-1.4782,-1.4819,-1.4835,-1.4875,-1.4892,-1.491,-1.4938,-1.4958,-1.4987,-1.5,-1.5033,-1.5051,-1.5076,-1.5094,-1.5086,-1.5138,-1.5131,-1.5148,-1.5148,-1.5159,-1.5158,-1.52,-1.517,-1.517,-1.517,-1.517,0,-1.4768,-1.4799,-1.4827,-1.485,-1.4885,-1.4903,-1.4937,-1.4955,-1.498,-1.5007,-1.5018,-1.5042,-1.5065,-1.5092,-1.5107,-1.5142,-1.515,-1.516,-1.5163,-1.5159,-1.5158,-1.5171,-1.5169,-1.5171,-1.5171,-1.5171,-1.5171,0,-1.4793,-1.4813,-1.4854,-1.4888,-1.4897,-1.4921,-1.495,-1.4973,-1.4989,-1.5022,-1.5031,-1.5057,-1.509,-1.511,-1.5152,-1.5162,-1.52,-1.5203,-1.519,-1.5192,-1.5208,-1.5206,-1.526,-1.5267,-1.5232,-1.5233,-1.5233,0,-1.4816,-1.484,-1.4876,-1.4894,-1.4911,-1.494,-1.496,-1.4979,-1.4999,-1.5034,-1.5052,-1.5085,-1.5112,-1.5163,-1.5186,-1.5217,-1.5221,-1.5238,-1.5226,-1.522,-1.5221,-1.5219,-1.5221,-1.524,-1.524,-1.524,-1.524,0,-1.4855,-1.4863,-1.4891,-1.4922,-1.4945,-1.4971,-1.4997,-1.5011,-1.5034,-1.5056,-1.5089,-1.511,-1.5151,-1.5184,-1.5217,-1.5235,-1.5241,-1.5244,-1.5249,-1.5245,-1.5236,-1.5241,-1.5195,-1.5243,-1.5242,-1.5242,-1.5242,-1.5242,-1.4879,-1.49,-1.4928,-1.4959,-1.498,-1.5003,-1.5025,-1.5044,-1.5072,-1.5107,-1.5116,-1.515,-1.5178,-1.5223,-1.5241,-1.5267,-1.5265,-1.5274,-1.5276,-1.5278,-1.5278,-1.5232,-1.5274,-1.5274,-1.5274,-1.5274,-1.5274,0,-1.4918,-1.4936,-1.4964,-1.4999,-1.5023,-1.5026,-1.5054,-1.5073,-1.5103,-1.5128,-1.5154,-1.5191,-1.5222,-1.5247,-1.5278,-1.5295,-1.5299,-1.5302,-1.5302,-1.5305,-1.5278,-1.527,-1.5299,-1.5299,-1.5299,-1.5299,-1.5299,-1.5299,-1.4941,-1.4977,-1.4988,-1.5034,-1.5052,-1.5085,-1.51,-1.5121,-1.5141,-1.5182,-1.5207,-1.5223,-1.5247,-1.528,-1.5308,-1.5315,-1.5326,-1.5329,-1.5336,-1.531,-1.5307,-1.5305,-1.5297,-1.5331,-1.5331,-1.5361,-1.5361,-1.5362]}]]